Location: Blackrock Ranger Station
(36.0936°N, 118.2611°W)
Time: 07:58:41
(UTC-07:00)

AO-7 - Pass Details

Date: 27 February 2026
Orbit: 1440 x 1458 km, 102.0° (Epoch: 15 March)

Event Time Altitude Azimuth Distance (km) Brightness Sun altitude
Rises 19:01:53 0° 206° (SSW) 4,515 ? -16.0°
Reaches altitude 10° 19:05:40 10° 222° (SW) 3,542 ? -16.8°
Maximum altitude 19:11:15 20° 266° (W) 2,864 ? -17.9°
Drops below altitude 10° 19:16:53 10° 310° (NW) 3,562 ? -19.1°
Sets 19:20:46 0° 326° (NNW) 4,548 ? -19.8°
